Погода в Юлове

Россия / Пензенская область     53°20′06″N   45°38′50″E
темп.,
°C
ветер,
м/с
пор.,
м/с
влажн.,
%
обл.,
%
осадки,
мм/ч
давл.,
гПа
погр.,
м
19 мая, ср
ср1900:00+18в413540 0.0 1011216
03:00+17в5135086 0.0 1011187
06:00+18в51457100 0.0 1011273
09:00+24юв612465 0.0 1011773
12:00+26юв69415 0.0 10121335
15:00+28юв610425 0.0 10111842
18:00+25вюв512495 0.0 1010428
21:00+22в817490 0.0 1010714
20 мая, чт
чт2000:00+19ююв512584 0.2 1011448
03:00+14юв310884 0.6 1010204
06:00+15ююв25885 0.1 1010267
09:00+16ююв4786100 0.3 1010685
12:00+16ю3687100 3.1 1010574
15:00+19ююз576626 4.9 10091472
18:00+16ююз597625 0.4 1009633
21:00+12ю36935 1.3 1011120
21 мая, пт
пт2100:00+11ю38965 0.0 1012168
03:00+10ююз389817 0.0 1013194
06:00+12ю3693100 0.0 1013207
09:00+13ююз499199 0.3 1015568
12:00+18юз786753 0.6 10151455
15:00+17зюз597197 0.6 10161354
18:00+16зюз3975100 0.0 1017831
21:00+12юз1187100 0.0 101911
22 мая, сб
сб2200:00+12ююз2289100 0.1 102018
03:00+12юв2395100 0.6 102075
06:00+13св1198100 2.0 101934
09:00+16всв1289100 2.1 1020244
12:00+20вюв366898 0.1 1018984
15:00+23ссз045890 0.5 1017763
18:00+15св71490100 0.1 1017356
21:00+13всв61493100 0.3 1018329
23 мая, вс
вс2300:00+13всв61396100 1.4 1017296
03:00+12в6139683 1.8 1017303
06:00+14вюв51194100 0.0 1016261
09:00+20юв4770100 0.0 1016379
12:00+26ююв6850100 0.0 1015805
15:00+27юв61155100 0.0 10141126
18:00+24юв51360100 0.0 1012428
21:00+21вюв5166391 0.0 1011334